Regional Weather Roundup
Issued by NWS

Home | Current Version | Previous Version | Graphics & Text | Print | Product List | Glossary On
Versions: 1 2 3 4 5 6 7 8 9 10 11 12 13 14 15 16 17 18 19 20 21 22 23 24 25 26 27 28 29 30 31 32 33 34 35 36 37 38 39 40 41 42 43 44 45 46 47 48 49 50
000
ASUS43 KLOT 261908
RWRIL

ILLINOIS REGIONAL WEATHER ROUNDUP
NATIONAL WEATHER SERVICE CHICAGO/ROMEOVILLE IL
200 PM CDT MON JUN 26 2017

NOTE: "FAIR" INDICATES FEW OR NO CLOUDS BELOW 12,000 FEET WITH NO
SIGNIFICANT WEATHER AND/OR OBSTRUCTIONS TO VISIBILITY.

* THESE STATIONS ARE NOT UNDER NWS QUALITY CONTROL. THEY ALSO MAY NOT
  REPORT WEATHER SUCH AS PRECIPITATION OR FOG.

ILZ001-002-007-009-015-016-024-262000-
NORTHWEST ILLINOIS

CITY           SKY/WX    TMP DP  RH WIND       PRES   REMARKS
MOLINE         CLOUDY    73  53  49 W15G25    30.11F
STERLING*      MOSUNNY   72  50  45 W18G25    30.09F
SAVANNA*       MOSUNNY   71  47  42 NW10G18   30.10F
$$

ILZ003-004-008-010-011-017-018-262000-
NORTH CENTRAL ILLINOIS

CITY           SKY/WX    TMP DP  RH WIND       PRES   REMARKS
ROCKFORD       PTSUNNY   71  43  36 NW17G25   30.09F
FREEPORT*      PTSUNNY   66  43  42 NW20G28   30.11F
ROCHELLE*      MOSUNNY   68  43  40 NW24      30.09F
DE KALB*       MOSUNNY   72  46  39 W20G30    30.08F
PERU*          PTSUNNY   71  50  48 W18G24    30.09F
$$

ILZ005-006-012>014-019>023-262000-
NORTHEAST ILLINOIS

CITY           SKY/WX    TMP DP  RH WIND       PRES   REMARKS
CHICAGO-OHARE  PTSUNNY   72  43  35 NW18G26   30.05F
CHICAGO-MIDWAY PTSUNNY   72  44  36 NW21G26   30.05F
AURORA         LGT RAIN  74  45  35 W23       30.07F
LANSING*       LGT RAIN  69  46  43 W13       30.06F
JOLIET*        PTSUNNY   74  46  36 W13G22    30.07F
WAUKEGAN       MOSUNNY   69  45  41 NW14G23   30.04F
DUPAGE AIRPORT MOSUNNY   70  45  40 W17G28    30.06F
WHEELING       PTSUNNY   69  43  38 NW14G26   30.06F
MORRIS*        MOSUNNY   72  44  36 W17G25    30.06F
ROMEOVILLE*    PTSUNNY   73  42  33 W18       30.07F
NORTHERLY ISL    N/A     71  37  28 SW12        N/A
$$

LMZ740>746-262000-
SOUTHERN LAKE MICHIGAN

STATION/POSITION SKY/WX   TEMP    WIND        PRES    VSBY  WAVE
                          AIR SEA DIR/SP/G                  HT/PER
                          (F)     (DEG/KT/KT) (MB)    (MI)  (FT/S)
SOUTHERN BUOY              61 61  260/ 10/ 10 1017.8          2/ 4
WILMETTE HARBOR            66 63  300/ 16/ 19   N/A           2/ 3
HARRISON CRIB              69     290/ 19/ 24   N/A
BURNHAM HARBOR             70                   N/A
CALUMET HARBOR             72     250/  4/ 13 1017.1F
BURNS HARBOR               67     280/ 12/ 20 1018.3F
MICHIGAN CITY              67     330/  6/  6   N/A
MICHIGAN CITY 6N           65 67  330/  6/  8   N/A           1/ 4
ST. JOSEPH                 65 69  300/ 10/ 12 1017.8          2/ 4
$$

ILZ025>027-034>036-040-047-049-050-058-095>099-262000-
WEST-CENTRAL ILLINOIS

CITY           SKY/WX    TMP DP  RH WIND       PRES   REMARKS
QUINCY         CLOUDY    67  52  58 SW7       30.18F
GALESBURG*     CLOUDY    70  54  55 W15G22    30.14F
MACOMB*        PTSUNNY   68  55  63 W12G18    30.19F
JACKSONVILLE*  CLOUDY    65  51  59 SW8       30.19F
PITTSFIELD*    PTSUNNY   67  52  58 W3        30.20F
$$

ILZ028>032-037-038-041>044-048-051>054-059>061-262000-
CENTRAL ILLINOIS

CITY           SKY/WX    TMP DP  RH WIND       PRES   REMARKS
PONTIAC        PTSUNNY   71  49  46 W22G28    30.12F
BLOOMINGTON    PTSUNNY   67  50  54 W15G26    30.15F
DECATUR        LGT RAIN  64  50  60 W12G20    30.17F
PEORIA         MOSUNNY   71  51  49 W18       30.14F
LACON*         MOSUNNY   71  51  49 W12G18    30.11F
LINCOLN*       PTSUNNY   68  53  57 W7        30.17F
SPRINGFIELD    CLOUDY    65  57  75 SW12      30.19F
TAYLORVILLE    CLOUDY    66  50  54 NW9       30.20F
$$

ILZ033-039-045-046-055>057-062-063-262000-
EAST-CENTRAL ILLINOIS

CITY           SKY/WX    TMP DP  RH WIND       PRES   REMARKS
CHAMPAIGN      CLOUDY    70  46  42 W18       30.17R
RANTOUL*       CLOUDY    70  48  45 W12G22    30.15S
MATTOON        LGT RAIN  67  52  58 W18       30.19R
PARIS*         PTSUNNY   70  50  49 W17G26    30.16F
$$

ILZ079-100>102-262000-
SOUTHWEST ILLINOIS

CITY           SKY/WX    TMP DP  RH WIND       PRES   REMARKS
ALTON          CLOUDY    72  54  53 N12       30.21R
BELLEVILLE     MOSUNNY   77  48  35 NW8       30.19S
CAHOKIA*       CLOUDY    77  45  32 N8        30.17F
SPARTA*        PTSUNNY   78  47  34 NW3       30.19R
$$

ILZ064>066-069>071-074>076-080>082-084>086-088>090-092>094-262000-
SOUTH-CENTRAL ILLINOIS

CITY           SKY/WX    TMP DP  RH WIND       PRES   REMARKS
CARBONDALE     SUNNY     77  50  38 CALM      30.17F
CAIRO*         SUNNY     76  50  39 CALM      30.16F
EFFINGHAM*     MOSUNNY   74  49  40 NW16G23   30.20S
MARION         MOSUNNY   79  46  31 NW7       30.17F
MT. VERNON     MOSUNNY   77  48  35 VRB3      30.16F
CENTRALIA*     PTSUNNY   78  51  38 NW7       30.17F
SALEM*         CLOUDY    77  49  38 N10       30.18S
METROPOLIS*    SUNNY     77  49  38 N6        30.17F
$$

ILZ067-068-072-073-078-083-087-091-262000-
SOUTHEAST ILLINOIS

CITY           SKY/WX    TMP DP  RH WIND       PRES   REMARKS
LAWRENCEVILLE  MOSUNNY   77  49  37 W13       30.16F
FLORA*         MOSUNNY   78  48  35 NW9G17    30.18S
FAIRFIELD*     MOSUNNY   76  46  34 CALM      30.16F
HARRISBURG*    SUNNY     77  49  36 E3        30.17F
ROBINSON*      CLOUDY    74  50  42 NW10G17   30.17F
CARMI*         MOSUNNY   78  51  39 NW8       30.16F
$$

ABBREVIATIONS USED IN REMARKS
   TC - TEMPERATURE IN CELSIUS
  WCI - WIND CHILL INDEX
   HX - HEAT INDEX
  VSB - VISIBILITY
$$





USA.gov is the U.S. government's official web portal to all federal, state and local government web resources and services.